Weather History for St. Francis, KS

Change the Weather History Date:

Monday, January 20, 2014

  Actual Average Record
Temperature  
Mean Temperature 34 °F -  
Max Temperature 49 °F 42 °F 49 °F (2014)
Min Temperature 20 °F 16 °F 19 °F (2013)
Degree Days  
Heating Degree Days 30    
Moisture  
Dew Point 10 °F    
Average Humidity 36    
Maximum Humidity 62    
Minimum Humidity 17    
Precipitation  
Precipitation 0.00 in - - ()
Sea Level Pressure  
Sea Level Pressure 30.18 in    
Wind  
Wind Speed 12 mph (NW)    
Max Wind Speed 31 mph    
Max Gust Speed 40 mph    
Visibility 9 miles    
Events      
Averages and records for this station are not official NWS values.
T = Trace of Precipitation, MM = Missing Value Source: NWS Daily Summary

Daily Weather History Graph

Daily Weather History Graph

Search for Another Location

Airport:

Trip Planner

Search our weather history database for the weather conditions in past years. The results will help you decide how hot, cold, wet, or windy it might be!

Date:

Astronomy

Jan. 20, 2014 Rise Set
Actual Time 8:04 AM CST 5:52 PM CST
Civil Twilight 7:34 AM CST 6:22 PM CST
Nautical Twilight 7:01 AM CST 6:55 PM CST
Astronomical Twilight 6:29 AM CST 7:27 PM CST
Moon 10:28 PM CST (1/20) 10:05 AM CST (1/20)
Length of Visible Light 10h 47m
Length of Day
9h 48m
Waning Gibbous, 82% of the Moon is Illuminated
Jan 20
Waning Gibbous
Jan 23
Last Quarter
Jan 30
New
Feb 6
First Quarter
Feb 14
Full

Hourly Weather History & Observations

Time (CST) Temp. Windchill Dew Point Humidity Pressure Visibility Wind Dir Wind Speed Gust Speed Precip Events Conditions
12:15 AM 31.3 °F 23.3 °F 10.6 °F 42% 29.94 in 10.0 mi SW 9.2 mph - N/A   Clear
12:35 AM 31.8 °F 25.4 °F 10.4 °F 41% 29.93 in 10.0 mi SW 6.9 mph - N/A   Clear
12:55 AM 29.1 °F 21.3 °F 10.9 °F 47% 29.94 in 10.0 mi WSW 8.1 mph - N/A   Clear
1:15 AM 28.2 °F 18.9 °F 11.3 °F 49% 29.93 in 10.0 mi SW 10.4 mph - N/A   Clear
1:35 AM 28.2 °F 19.5 °F 11.8 °F 50% 29.94 in 10.0 mi SW 9.2 mph - N/A   Clear
1:55 AM 27.9 °F 19.1 °F 12.2 °F 52% 29.94 in 10.0 mi SW 9.2 mph - N/A   Clear
2:15 AM 27.5 °F 18.0 °F 12.4 °F 53% 29.94 in 10.0 mi SW 10.4 mph - N/A   Clear
2:35 AM 29.5 °F 20.4 °F 12.9 °F 50% 29.94 in 10.0 mi SW 10.4 mph - N/A   Clear
2:55 AM 29.8 °F 20.3 °F 12.6 °F 49% 29.95 in 10.0 mi WSW 11.5 mph - N/A   Clear
3:15 AM 29.1 °F 19.4 °F 12.2 °F 49% 29.95 in 10.0 mi SW 11.5 mph - N/A   Clear
3:35 AM 31.1 °F 22.4 °F 12.0 °F 45% 29.96 in 10.0 mi WSW 10.4 mph - N/A   Clear
3:55 AM 29.8 °F 20.9 °F 11.8 °F 47% 29.96 in 10.0 mi WSW 10.4 mph - N/A   Clear
4:15 AM 30.0 °F 21.1 °F 11.8 °F 47% 29.96 in 10.0 mi WSW 10.4 mph - N/A   Clear
4:35 AM 29.8 °F 22.2 °F 11.5 °F 46% 29.97 in 10.0 mi West 8.1 mph - N/A   Clear
4:55 AM 35.1 °F - 9.3 °F 34% 29.98 in 10.0 mi Calm Calm - N/A   Clear
5:15 AM 36.9 °F - 8.1 °F 30% 29.98 in 10.0 mi Calm Calm - N/A   Clear
5:35 AM 36.1 °F - 7.9 °F 31% 29.99 in 10.0 mi Calm Calm - N/A   Clear
5:55 AM 37.6 °F 29.6 °F 8.6 °F 30% 30.01 in 10.0 mi NW 12.7 mph 18.4 mph N/A   Clear
6:15 AM 38.3 °F 30.1 °F 8.2 °F 29% 30.03 in 10.0 mi NNW 13.8 mph 24.2 mph N/A   Clear
6:35 AM 36.9 °F 28.2 °F 8.4 °F 31% 30.04 in 10.0 mi NNW 13.8 mph - N/A   Clear
6:55 AM 35.6 °F 28.6 °F 9.1 °F 33% 30.06 in 10.0 mi North 9.2 mph - N/A   Clear
7:15 AM 35.1 °F 26.4 °F 9.9 °F 35% 30.08 in 10.0 mi NNW 12.7 mph - N/A   Clear
7:35 AM 35.8 °F 26.1 °F 11.1 °F 36% 30.09 in 10.0 mi NNW 16.1 mph 21.9 mph N/A   Clear
7:55 AM 36.0 °F 25.6 °F 13.3 °F 39% 30.11 in 10.0 mi North 18.4 mph 25.3 mph N/A   Clear
8:15 AM 35.1 °F 27.4 °F 13.3 °F 41% 30.14 in 10.0 mi North 10.4 mph 20.7 mph N/A   Clear
8:35 AM 33.8 °F 29.6 °F 14.0 °F 44% 30.15 in 10.0 mi North 4.6 mph - N/A   Clear
8:55 AM 33.1 °F - 14.5 °F 47% 30.18 in 10.0 mi Calm Calm - N/A   Clear
9:35 AM 36.5 °F 29.7 °F 16.5 °F 44% 30.19 in 10.0 mi NNW 9.2 mph - N/A   Clear
9:55 AM 37.8 °F 30.7 °F 16.0 °F 41% 30.21 in 10.0 mi NNW 10.4 mph - N/A   Clear
10:15 AM 42.6 °F 34.6 °F 13.8 °F 31% 30.22 in 10.0 mi NNW 17.3 mph 24.2 mph N/A   Clear
10:35 AM 43.3 °F 36.8 °F 13.5 °F 30% 30.23 in 10.0 mi NNW 12.7 mph 20.7 mph N/A   Clear
10:55 AM 44.8 °F 37.4 °F 13.6 °F 28% 30.23 in 10.0 mi NNW 17.3 mph 21.9 mph N/A   Clear
11:15 AM 46.2 °F 37.9 °F 13.5 °F 27% 30.24 in 10.0 mi NNW 24.2 mph 32.2 mph N/A   Clear
11:35 AM 46.4 °F 38.7 °F 12.4 °F 25% 30.24 in 10.0 mi NNW 20.7 mph 27.6 mph N/A   Scattered Clouds
11:55 AM 46.6 °F - 10.6 °F 23% 30.24 in 10.0 mi NW 19.6 mph 27.6 mph N/A   Scattered Clouds
12:15 PM 46.8 °F - 6.8 °F 20% 30.24 in 10.0 mi NW 19.6 mph 29.9 mph N/A   Clear
12:35 PM 47.8 °F - 7.9 °F 20% 30.24 in 10.0 mi NNW 23.0 mph 31.1 mph N/A   Clear
12:55 PM 48.9 °F - 8.4 °F 19% 30.22 in 10.0 mi NNW 26.5 mph 34.5 mph N/A   Clear
1:15 PM 49.5 °F - 8.4 °F 19% 30.23 in 10.0 mi NNW 23.0 mph 31.1 mph N/A   Clear
1:35 PM 49.1 °F - 8.1 °F 19% 30.22 in 10.0 mi NW 24.2 mph 36.8 mph N/A   Clear
1:55 PM 49.5 °F - 7.7 °F 18% 30.23 in 10.0 mi NNW 21.9 mph 40.3 mph N/A   Clear
2:15 PM 48.9 °F - 7.7 °F 19% 30.22 in 10.0 mi NNW 24.2 mph 38.0 mph N/A   Clear
2:35 PM 48.9 °F - 7.2 °F 18% 30.22 in 10.0 mi NNW 28.8 mph 36.8 mph N/A   Clear
2:55 PM 48.7 °F - 5.5 °F 17% 30.23 in 5.0 mi NNW 31.1 mph 38.0 mph N/A   Haze
3:15 PM 47.5 °F - 5.7 °F 18% 30.24 in 4.0 mi NNW 28.8 mph 40.3 mph N/A   Haze
3:35 PM 47.3 °F - 6.1 °F 19% 30.24 in 4.0 mi NNW 26.5 mph 39.1 mph N/A   Haze
3:55 PM 46.4 °F 38.5 °F 5.9 °F 19% 30.25 in 4.0 mi NNW 21.9 mph 35.7 mph N/A   Haze
4:15 PM 45.9 °F 36.8 °F 5.9 °F 19% 30.26 in 5.0 mi NNW 27.6 mph 38.0 mph N/A   Haze
4:35 PM 45.1 °F 36.4 °F 6.3 °F 20% 30.27 in 5.0 mi NNW 24.2 mph 31.1 mph N/A   Haze
4:55 PM 44.2 °F 35.7 °F 7.0 °F 22% 30.28 in 4.0 mi NNW 21.9 mph 31.1 mph N/A   Haze
5:15 PM 43.3 °F 34.7 °F 7.7 °F 23% 30.29 in 4.0 mi North 20.7 mph 33.4 mph N/A   Haze
5:35 PM 42.1 °F 34.2 °F 8.1 °F 25% 30.30 in 7.0 mi NNW 16.1 mph 27.6 mph N/A   Scattered Clouds
5:55 PM 41.4 °F 32.7 °F 8.6 °F 26% 30.30 in 7.0 mi NNW 18.4 mph 28.8 mph N/A   Clear
6:15 PM 39.9 °F 32.9 °F 8.6 °F 28% 30.31 in 10.0 mi NNW 11.5 mph - N/A   Clear
6:35 PM 37.4 °F 32.1 °F 9.0 °F 31% 30.31 in 10.0 mi NNW 6.9 mph - N/A   Clear
6:55 PM 36.5 °F - 9.3 °F 32% 30.32 in 10.0 mi Calm Calm - N/A   Clear
7:15 PM 34.0 °F 29.8 °F 9.5 °F 36% 30.33 in 10.0 mi West 4.6 mph - N/A   Clear
7:35 PM 34.5 °F 28.6 °F 10.2 °F 37% 30.33 in 10.0 mi WNW 6.9 mph - N/A   Clear
7:55 PM 35.1 °F 31.0 °F 10.2 °F 36% 30.34 in 10.0 mi WNW 4.6 mph - N/A   Clear
8:15 PM 32.0 °F 26.4 °F 10.8 °F 41% 30.35 in 10.0 mi WNW 5.8 mph - N/A   Clear
8:35 PM 30.2 °F 22.6 °F 11.1 °F 45% 30.35 in 10.0 mi NW 8.1 mph - N/A   Clear
8:55 PM 30.9 °F 23.5 °F 11.5 °F 44% 30.35 in 10.0 mi NW 8.1 mph - N/A   Clear
9:15 PM 30.6 °F 23.1 °F 11.8 °F 46% 30.35 in 10.0 mi NNW 8.1 mph - N/A   Clear
9:35 PM 28.8 °F 20.9 °F 11.1 °F 48% 30.36 in 10.0 mi WNW 8.1 mph - N/A   Clear
9:55 PM 28.0 °F 22.8 °F 11.5 °F 50% 30.36 in 10.0 mi North 4.6 mph - N/A   Clear
10:15 PM 28.8 °F 23.7 °F 11.7 °F 49% 30.36 in 10.0 mi NNW 4.6 mph - N/A   Clear
10:35 PM 27.1 °F 23.2 °F 11.3 °F 51% 30.37 in 10.0 mi North 3.5 mph - N/A   Clear
10:55 PM 26.6 °F - 11.8 °F 54% 30.37 in 10.0 mi Calm Calm - N/A   Clear
11:15 PM 24.6 °F - 11.3 °F 57% 30.38 in 10.0 mi Calm Calm - N/A   Clear
11:35 PM 20.7 °F 15.8 °F 9.5 °F 62% 30.39 in 10.0 mi South 3.5 mph - N/A   Clear
11:55 PM 22.1 °F - 10.6 °F 61% 30.39 in 10.0 mi Calm Calm - N/A   Clear